#timestamp,LO_Frequency,Hit 
1500807615.3,286043995.1,N
1500807635.1,286043997.4,N
1500807655.9,286043995.6,N
1500807675.7,286043995.3,N
1500807695.5,286043997.3,N
1500807715.4,286043994.9,N
1500807735.2,286043997.6,N
1500807755.1,286043997.9,N
1500807756.0,286043997.9,N
1500807775.8,286043994.9,N
1500807795.6,286043997.2,N
1500807815.5,286043997.2,N
1500807835.3,286043997.1,N
1500807855.2,286043999.4,N
1500807875.9,286043999.5,N
1500807895.7,286043996.7,N
1500807915.6,286043996.7,N
1500807935.4,286043999.5,N
1500807955.3,286043996.8,N
1500807975.1,286043999.5,N
1500807976.0,286043999.5,N
1500807995.8,286043998.9,N
1500808015.7,286043998.8,N
1500808035.5,286043998.2,N
1500808055.3,286043998.4,N
1500808075.2,286044000.5,N
1500808095.0,286043998.5,N
1500808095.9,286043998.5,N
1500808115.8,286044000.9,N
1500808135.6,286043998.3,N
1500808155.4,286043998.9,N
1500808175.3,286043998.3,N
1500808195.1,286043999.1,N
1500808215.9,286043999.2,N
1500808235.7,286043998.5,N
1500808255.5,286043998.3,N
1500808275.4,286043998.3,N
1500808295.2,286043998.6,N
1500808315.1,286044001.1,N
1500808316.0,286044001.1,N
1500808335.8,286044000.6,N
1500808355.6,286044000.6,N
1500808375.5,286044001.0,N
1500808395.3,286043996.7,N
1500808415.1,286043998.3,N
1500808435.9,286043998.6,N
1500808455.7,286043998.4,N
1500808475.6,286043998.8,N
1500808495.4,286043998.8,N
1500808515.2,286043997.2,N
1500808535.1,286043997.0,N
1500808536.0,286043997.0,N
1500808555.8,286043996.6,N
1500808575.7,286043996.6,N
1500808595.5,286043997.0,N
1500808615.3,286043996.9,N
1500808635.2,286043999.4,N
1500808655.0,286043998.3,N
1500808655.9,286043998.3,N
1500808675.8,286043999.2,N
1500808695.6,286043999.3,N
1500808715.4,286043998.3,N
1500808735.3,286043998.2,N
1500808755.1,286043998.3,N
1500808775.9,286043998.6,N
1500808795.7,286043998.0,N
1500808815.5,286043998.6,N
1500808835.4,286043998.5,N
1500808855.2,286044000.7,N
1500808875.0,286043999.7,N
1500808875.9,286043999.7,N
1500808895.8,286044000.8,N
1500808915.6,286044000.8,N
1500808935.5,286044000.2,N
1500808955.3,286044000.2,N
1500808975.1,286043999.6,N
1500808995.9,286044000.0,N
1500809015.7,286044002.6,N
1500809035.6,286044000.0,N
1500809055.4,286044000.4,N
1500809075.2,286044000.3,N
1500809095.1,286044000.1,N
1500809096.0,286044000.1,N
1500809115.8,286044000.5,N
1500809135.6,286044000.8,N
1500809155.5,286043999.7,N
1500809175.3,286044000.8,N
1500809195.2,286044000.3,N
1500809215.9,286044000.5,N
1500809235.7,286044000.5,N
1500809255.6,286044002.4,N
1500809275.4,286044000.0,N
1500809295.3,286044000.1,N
1500809315.1,286044000.2,N
1500809316.0,286044000.2,N
1500809335.8,286044000.2,N
1500809355.7,286043999.7,N
1500809375.5,286044000.6,N
1500809395.3,286043998.5,N
1500809415.2,286043999.3,N
1500809435.0,286043999.2,N
1500809435.9,286043999.2,N
1500809455.8,286043999.1,N
1500809475.6,286043998.7,N
1500809495.4,286044001.0,N
1500809515.3,286043998.7,N
1500809535.1,286043998.1,N
1500809555.9,286044001.0,N
1500809575.7,286044000.7,N
1500809595.5,286044001.1,N
1500809615.4,286044000.9,N
1500809635.2,286044000.7,N
1500809655.0,286044000.0,N
1500809656.0,286044000.0,N
1500809675.8,286044000.3,N
1500809695.6,286044000.1,N
1500809715.5,286044000.0,N
1500809735.3,286044001.0,N
1500809755.1,286044000.0,N
1500809775.9,286044000.9,N
1500809795.7,286044001.0,N
1500809815.6,286044000.6,N
1500809835.4,286044000.1,N
1500809855.2,286044002.6,N
1500809875.1,286044002.0,N
1500809876.0,286044002.0,N
1500809895.8,286044002.1,N
1500809915.6,286044002.0,N
1500809935.5,286043999.7,N
1500809955.3,286043999.9,N
1500809975.2,286044000.5,N
1500809995.9,286044000.5,N
1500810015.7,286044000.7,N
1500810035.6,286044000.8,N
1500810055.4,286043998.3,N
1500810075.3,286043998.2,N
1500810095.1,286043998.0,N
1500810096.0,286043998.0,N
1500810115.8,286043998.2,N
1500810135.7,286043998.4,N
1500810155.5,286044000.7,N
1500810175.3,286043998.1,N
1500810195.2,286044000.0,N
1500810215.0,286044002.7,N
1500810215.9,286044002.7,N
1500810235.8,286044001.8,N
1500810255.6,286044001.6,N
1500810275.4,286044002.7,N
1500810295.3,286044000.1,N
1500810315.1,286044000.2,N
1500810335.9,286044000.4,N
1500810355.7,286043999.6,N
1500810375.5,286043999.9,N
1500810395.4,286043999.9,N
1500810415.2,286044000.0,N
1500810435.1,286043999.7,N
1500810436.0,286043999.7,N
1500810455.8,286044001.7,N
1500810475.6,286044002.3,N
1500810495.5,286044002.4,N
1500810515.3,286044001.9,N
1500810535.1,286043999.7,N
1500810555.9,286044000.2,N
1500810575.7,286044000.8,N
1500810595.6,286044000.2,N
1500810615.4,286044000.1,N
1500810635.2,286044000.0,N
1500810655.1,286044002.6,N
1500810656.0,286044002.6,N
1500810675.8,286044002.3,N
1500810695.7,286044002.2,N
1500810715.5,286044002.7,N
1500810735.3,286044002.3,N
1500810755.2,286044001.4,N
1500810775.0,286044001.9,N
1500810775.9,286044001.9,N
1500810795.8,286044001.7,N
1500810815.6,286044001.7,N
1500810835.5,286044001.6,N
1500810855.3,286044001.8,N
1500810875.1,286044001.4,N
1500810895.9,286044004.1,N
1500810915.7,286044004.1,N
1500810935.5,286044001.6,N
1500810955.4,286044001.4,N
1500810975.2,286044002.4,N
1500810995.1,286044001.8,N
1500810996.0,286044001.8,N
1500811015.8,286044001.7,N
1500811035.6,286044002.3,N
1500811055.5,286044000.2,N
1500811075.3,286044000.1,N
1500811095.2,286044000.1,N
1500811115.9,286043998.3,N
1500811135.7,286043998.8,N
1500811155.6,286043998.2,N
1500811175.4,286043996.7,N
1500811195.2,286043996.8,N
